Pella, IA

4:34 AM CST on February 12, 2016 (GMT -0600)
Pella Municipal

Weather History for KPEA - November, 2012

Change the Weather History Date:

Saturday, November 10, 2012

  Actual Average (KOXV) Record (KOXV)
Temperature  
Mean Temperature 65 °F -  
Max Temperature 75 °F 48 °F 73 °F (2012)
Min Temperature 55 °F 30 °F 14 °F (1952)
Growing Degree Days 15 (Base 50)    
Moisture  
Dew Point 53 °F    
Average Humidity 62    
Maximum Humidity 87    
Minimum Humidity 47    
Precipitation  
Precipitation 0.00 in - - ()
Sea Level Pressure  
Sea Level Pressure 29.71 in    
Wind  
Wind Speed 13 mph (SSE)    
Max Wind Speed 25 mph    
Max Gust Speed 33 mph    
Visibility 10 miles    
Events      
Averages and records for this station are not official NWS values.
T = Trace of Precipitation, MM = Missing Value Source: NWS Daily Summary

Daily Weather History Graph

Daily Weather History Graph

Search for Another Location

Airport or City:

Trip Planner

Search our weather history database for the weather conditions in past years. The results will help you decide how hot, cold, wet, or windy it might be!

Date:

Astronomy

Nov. 10, 2012 Rise Set
Actual Time 6:54 AM CST 4:56 PM CST
Civil Twilight 6:25 AM CST 5:25 PM CST
Nautical Twilight 5:52 AM CST 5:58 PM CST
Astronomical Twilight 5:19 AM CST 6:31 PM CST
Moon 2:58 AM CST (11/10) 2:45 PM CST (11/10)
Length of Visible Light 11h 00m
Length of Day
10h 01m
Waning Crescent, 14% of the Moon is Illuminated
Nov 10
Waning Crescent
Nov 13
New
Nov 20
First Quarter
Nov 28
Full
Dec 6
Last Quarter

Hourly Weather History & Observations

Time (CST) Temp. Dew Point Humidity Pressure Visibility Wind Dir Wind Speed Gust Speed Precip Events Conditions
12:15 AM 57.7 °F 50.5 °F 77% 29.82 in 10.0 mi ESE 6.9 mph - N/A   Mostly Cloudy
12:35 AM 57.6 °F 50.9 °F 78% 29.81 in 10.0 mi ESE 6.9 mph - N/A   Mostly Cloudy
12:55 AM 57.0 °F 50.5 °F 79% 29.81 in 10.0 mi ESE 6.9 mph - N/A   Scattered Clouds
1:15 AM 56.3 °F 50.5 °F 81% 29.80 in 10.0 mi ESE 6.9 mph - N/A   Clear
1:35 AM 55.6 °F 50.7 °F 84% 29.80 in 10.0 mi ESE 8.1 mph - N/A   Clear
1:55 AM 55.8 °F 51.3 °F 85% 29.79 in 10.0 mi ESE 6.9 mph - N/A   Clear
2:15 AM 56.5 °F 52.5 °F 87% 29.78 in 10.0 mi ESE 8.1 mph - N/A   Clear
2:35 AM 58.3 °F 53.6 °F 84% 29.78 in 10.0 mi ESE 12.7 mph 21.9 mph N/A   Clear
2:55 AM 58.5 °F 53.4 °F 83% 29.78 in 10.0 mi SE 10.4 mph - N/A   Clear
3:15 AM 59.0 °F 53.8 °F 83% 29.77 in 10.0 mi SSE 10.4 mph - N/A   Clear
3:35 AM 60.3 °F 54.0 °F 80% 29.77 in 10.0 mi SSE 9.2 mph - N/A   Scattered Clouds
3:55 AM 60.8 °F 54.1 °F 79% 29.77 in 10.0 mi SE 8.1 mph 18.4 mph N/A   Clear
4:15 AM 61.2 °F 54.3 °F 78% 29.76 in 10.0 mi SSE 10.4 mph 21.9 mph N/A   Clear
4:35 AM 61.2 °F 54.5 °F 79% 29.76 in 10.0 mi SSE 9.2 mph - N/A   Clear
4:55 AM 61.7 °F 54.5 °F 77% 29.75 in 10.0 mi SSE 10.4 mph 17.3 mph N/A   Clear
5:15 AM 62.1 °F 54.5 °F 76% 29.75 in 10.0 mi SSE 12.7 mph 19.6 mph N/A   Clear
5:35 AM 62.1 °F 54.5 °F 76% 29.74 in 10.0 mi SSE 13.8 mph - N/A   Clear
5:55 AM 62.1 °F 54.5 °F 76% 29.74 in 10.0 mi SSE 8.1 mph - N/A   Clear
6:15 AM 62.2 °F 54.5 °F 76% 29.74 in 10.0 mi South 13.8 mph 18.4 mph N/A   Clear
6:35 AM 62.2 °F 54.7 °F 76% 29.73 in 10.0 mi SSE 13.8 mph 18.4 mph N/A   Clear
6:55 AM 62.2 °F 54.5 °F 76% 29.74 in 10.0 mi South 13.8 mph 18.4 mph N/A   Clear
7:15 AM 62.4 °F 54.5 °F 75% 29.74 in 10.0 mi SSE 11.5 mph 17.3 mph N/A   Clear
7:35 AM 62.2 °F 54.5 °F 76% 29.74 in 10.0 mi South 10.4 mph - N/A   Clear
7:55 AM 63.1 °F 54.7 °F 74% 29.75 in 10.0 mi South 9.2 mph - N/A   Clear
8:15 AM 64.8 °F 55.0 °F 71% 29.74 in 10.0 mi South 15.0 mph 19.6 mph N/A   Clear
8:35 AM 65.7 °F 55.0 °F 69% 29.74 in 10.0 mi South 18.4 mph 26.5 mph N/A   Clear
8:55 AM 67.1 °F 55.0 °F 65% 29.73 in 10.0 mi South 21.9 mph 31.1 mph N/A   Clear
9:15 AM 68.0 °F 55.0 °F 63% 29.72 in 10.0 mi South 21.9 mph 29.9 mph N/A   Clear
9:35 AM 68.9 °F 55.0 °F 61% 29.72 in 10.0 mi SSW 21.9 mph 29.9 mph N/A   Clear
9:55 AM 70.2 °F 55.0 °F 59% 29.72 in 10.0 mi South 17.3 mph 28.8 mph N/A   Clear
10:15 AM 71.6 °F 55.2 °F 56% 29.72 in 10.0 mi SSW 16.1 mph 26.5 mph N/A   Clear
10:35 AM 72.5 °F 55.0 °F 54% 29.72 in 10.0 mi SSW 20.7 mph 31.1 mph N/A   Clear
10:55 AM 73.0 °F 54.9 °F 53% 29.72 in 10.0 mi South 20.7 mph 28.8 mph N/A   Clear
11:15 AM 73.9 °F 54.9 °F 51% 29.71 in 10.0 mi SSW 20.7 mph 28.8 mph N/A   Clear
11:35 AM 74.5 °F 55.2 °F 51% 29.71 in 10.0 mi South 20.7 mph 27.6 mph N/A   Clear
11:55 AM 75.2 °F 55.2 °F 50% 29.70 in 10.0 mi South 20.7 mph 27.6 mph N/A   Clear
12:15 PM 75.4 °F 55.2 °F 49% 29.69 in 10.0 mi South 19.6 mph 29.9 mph N/A   Clear
12:35 PM 75.2 °F 55.2 °F 50% 29.69 in 10.0 mi SSW 15.0 mph 29.9 mph N/A   Clear
12:55 PM 75.0 °F 55.0 °F 50% 29.70 in 10.0 mi South 21.9 mph 28.8 mph N/A   Clear
1:15 PM 73.4 °F 55.2 °F 53% 29.70 in 10.0 mi South 12.7 mph 27.6 mph N/A   Clear
1:35 PM 72.9 °F 55.4 °F 54% 29.71 in 10.0 mi SSW 17.3 mph 24.2 mph N/A   Clear
1:55 PM 72.0 °F 56.3 °F 58% 29.69 in 10.0 mi South 11.5 mph 17.3 mph N/A   Clear
2:15 PM 72.1 °F 56.5 °F 58% 29.67 in 10.0 mi SSE 11.5 mph 17.3 mph N/A   Clear
2:35 PM 74.7 °F 56.5 °F 53% 29.69 in 10.0 mi South 19.6 mph 27.6 mph N/A   Clear
2:55 PM 73.2 °F 55.9 °F 55% 29.68 in 10.0 mi South 19.6 mph 27.6 mph N/A   Clear
3:15 PM 72.1 °F 55.8 °F 56% 29.65 in 10.0 mi SSE 18.4 mph 24.2 mph N/A   Clear
3:35 PM 72.9 °F 55.6 °F 55% 29.65 in 10.0 mi SSE 18.4 mph 25.3 mph N/A   Clear
3:55 PM 72.7 °F 55.4 °F 55% 29.65 in 10.0 mi SSE 15.0 mph 26.5 mph N/A   Clear
4:15 PM 73.4 °F 55.6 °F 54% 29.67 in 10.0 mi South 16.1 mph 24.2 mph N/A   Clear
4:35 PM 72.3 °F 55.0 °F 54% 29.66 in 10.0 mi South 17.3 mph 29.9 mph N/A   Clear
4:55 PM 71.1 °F 54.7 °F 56% 29.67 in 10.0 mi South 17.3 mph 27.6 mph N/A   Clear
5:15 PM 70.7 °F 54.1 °F 56% 29.68 in 10.0 mi South 21.9 mph 29.9 mph N/A   Clear
5:35 PM 70.5 °F 53.2 °F 54% 29.69 in 10.0 mi South 19.6 mph 28.8 mph N/A   Clear
5:55 PM 70.2 °F 52.0 °F 52% 29.68 in 10.0 mi South 18.4 mph 25.3 mph N/A   Clear
6:15 PM 69.8 °F 50.9 °F 51% 29.69 in 10.0 mi South 15.0 mph 20.7 mph N/A   Clear
6:35 PM 69.4 °F 50.5 °F 51% 29.66 in 10.0 mi South 20.7 mph 26.5 mph N/A   Clear
6:55 PM 69.6 °F 49.6 °F 49% 29.67 in 10.0 mi South 23.0 mph 32.2 mph N/A   Clear
7:15 PM 68.9 °F 49.1 °F 49% 29.67 in 10.0 mi South 18.4 mph 29.9 mph N/A   Clear
7:35 PM 69.1 °F 48.6 °F 48% 29.62 in 10.0 mi SSE 25.3 mph 31.1 mph N/A   Clear
7:55 PM 69.1 °F 48.4 °F 48% 29.65 in 10.0 mi South 19.6 mph 27.6 mph N/A   Clear
8:15 PM 69.1 °F 48.2 °F 47% 29.64 in 10.0 mi South 23.0 mph 29.9 mph N/A   Clear
8:35 PM 68.7 °F 47.5 °F 47% 29.63 in 10.0 mi South 19.6 mph 28.8 mph N/A   Clear
8:55 PM 68.2 °F 47.3 °F 47% 29.64 in 10.0 mi South 20.7 mph 29.9 mph N/A   Clear
9:35 PM 67.8 °F 48.2 °F 49% 29.65 in 10.0 mi South 23.0 mph 28.8 mph N/A   Clear
9:55 PM 67.5 °F 48.0 °F 50% 29.65 in 10.0 mi South 19.6 mph 27.6 mph N/A   Clear
10:15 PM 67.5 °F 47.8 °F 49% 29.65 in 10.0 mi South 20.7 mph 28.8 mph N/A   Clear
10:35 PM 67.5 °F 47.5 °F 49% 29.66 in 10.0 mi South 25.3 mph 33.4 mph N/A   Clear
10:55 PM 67.3 °F 47.3 °F 49% 29.67 in 10.0 mi South 21.9 mph 29.9 mph N/A   Clear
11:15 PM 67.3 °F 47.3 °F 49% 29.67 in 10.0 mi South 18.4 mph 28.8 mph N/A   Clear
11:35 PM 67.1 °F 47.3 °F 49% 29.70 in 10.0 mi South 19.6 mph 29.9 mph N/A   Clear
11:55 PM 67.1 °F 47.8 °F 50% 29.71 in 10.0 mi South 19.6 mph 31.1 mph N/A   Clear